FW0906 Weather Reports


time (UTC)temp
C
wind
direction
speed
KPH
gust
KPH
rain 1hr
cm
rain 24hr
cm
rain mn
cm
humidity
%
barometer
mb
20260903220038 34 360 0.0 16.1 0.00 0.00 0.00 32 1013.3
20260903214535 34 242 0.0 9.7 0.00 0.00 0.00 32 1013.3
20260903213027 35 360 1.6 12.9 0.00 0.00 0.00 33 1013.3
20260903211521 35 246 1.6 12.9 0.00 0.00 0.00 33 1013.3
20260903210029 35 218 1.6 16.1 0.00 0.00 0.00 33 1013.4
20260903204513 35 188 0.0 11.3 0.00 0.00 0.00 32 1013.6
20260903203021 34 220 1.6 11.3 0.00 0.00 0.00 29 1013.7
20260903201505 34 180 1.6 11.3 0.00 0.00 0.00 29 1013.7
20260903200101 34 209 1.6 16.1 0.00 0.00 0.00 27 1014.0
20260903194555 33 138 0.0 11.3 0.00 0.00 0.00 8 1014.3
20260903193051 33 138 0.0 9.7 0.00 0.00 0.00 8 1014.5
20260903191553 32 108 0.0 14.5 0.00 0.00 0.00 100 1014.6
20260903190043 31 109 0.0 12.9 0.00 0.00 0.00 100 1014.7
20260903184543 31 102 1.6 14.5 0.00 0.00 0.00 100 1014.8
20260903183036 30 96 3.2 16.1 0.00 0.00 0.00 100 1015.1
20260903181529 30 84 0.0 11.3 0.00 0.00 0.00 100 1015.3
20260903180032 30 69 3.2 14.5 0.00 0.00 0.00 100 1015.5
20260903174520 30 50 1.6 12.9 0.00 0.00 0.00 100 1015.6
20260903173019 31 347 3.2 12.9 0.00 0.00 0.00 100 1015.6
20260903171511 32 53 3.2 20.9 0.00 0.00 0.00 100 1015.7
20260903170010 32 50 1.6 19.3 0.00 0.00 0.00 100 1015.9
20260903164502 31 49 4.8 20.9 0.00 0.00 0.00 100 1016.0
20260903163058 32 297 3.2 17.7 0.00 0.00 0.00 100 1015.9
20260903161556 31 355 4.8 22.5 0.00 0.00 0.00 100 1015.8
20260903160050 31 329 8.0 22.5 0.00 0.00 0.00 100 1015.7
20260903154545 32 312 6.4 17.7 0.00 0.00 0.00 100 1015.4
20260903153040 31 360 3.2 11.3 0.00 0.00 0.00 100 1014.9
20260903151536 31 360 1.6 11.3 0.00 0.00 0.00 100 1014.8
20260903150034 30 360 0.0 11.3 0.00 0.00 0.00 100 1014.8
20260903144528 30 360 6.4 12.9 0.00 0.00 0.00 100 1014.9
20260903143045 30 257 3.2 11.3 0.00 0.00 0.00 100 1014.7
20260903141519 29 360 3.2 12.9 0.00 0.00 0.00 100 1014.8
20260903140022 28 360 3.2 12.9 0.00 0.00 0.00 100 1014.8
20260903134510 28 255 4.8 12.9 0.00 0.00 0.00 100 1014.7
20260903133006 27 254 1.6 12.9 0.00 0.00 0.00 100 1014.7
20260903131501 27 360 1.6 9.7 0.00 0.00 0.00 100 1014.8
20260903130117 27 246 0.0 6.4 0.00 0.00 0.00 100 1014.9
20260903124553 26 237 1.6 9.7 0.00 0.00 0.00 100 1015.0
20260903123049 26 221 0.0 0.0 0.00 0.00 0.00 100 1015.0
20260903121544 25 231 0.0 1.6 0.00 0.00 0.00 100 1015.0
20260903120041 25 233 0.0 0.0 0.00 0.00 0.00 100 1015.0
20260903114536 25 232 0.0 0.0 0.00 0.00 0.00 100 1014.8
20260903113040 25 235 0.0 0.0 0.00 0.00 0.00 100 1014.8
20260903111526 25 236 0.0 0.0 0.00 0.00 0.00 100 1014.7
20260903110022 25 237 0.0 0.0 0.00 0.00 0.00 100 1014.6
20260903104518 25 238 0.0 0.0 0.00 0.00 0.00 100 1014.7
20260903103013 25 241 0.0 4.8 0.00 0.00 0.00 100 1014.7
20260903101511 26 244 0.0 4.8 0.00 0.00 0.00 100 1014.5
20260903100005 26 244 0.0 11.3 0.00 0.00 0.00 100 1014.5
20260903094610 26 232 0.0 6.4 0.00 0.00 0.00 100 1014.6
20260903093107 26 360 0.0 0.0 0.00 0.00 0.00 100 1014.5
20260903091553 26 360 0.0 0.0 0.00 0.00 0.00 100 1014.4
20260903090048 26 360 0.0 0.0 0.00 0.00 0.00 100 1014.3
20260903084543 26 360 0.0 0.0 0.00 0.00 0.00 100 1014.3
20260903083046 26 360 0.0 0.0 0.00 0.00 0.00 100 1014.3
20260903081534 26 360 0.0 1.6 0.00 0.00 0.00 100 1014.3
20260903080030 26 360 0.0 0.0 0.00 0.00 0.00 100 1014.3
20260903074525 26 360 0.0 0.0 0.00 0.00 0.00 100 1014.3
20260903073022 26 360 0.0 0.0 0.00 0.00 0.00 100 1014.3
20260903071517 26 360 0.0 0.0 0.00 0.00 0.00 100 1014.4
20260903070012 26 360 0.0 0.0 0.00 0.00 0.00 100 1014.4
20260903064507 26 360 0.0 0.0 0.00 0.00 0.00 100 1014.4
20260903063005 26 360 0.0 0.0 0.00 0.00 0.00 100 1014.5
20260903061607 26 360 0.0 0.0 0.00 0.00 0.00 100 1014.6
20260903060055 26 360 0.0 0.0 0.00 0.00 0.00 100 1014.6
20260903054550 27 360 0.0 0.0 0.00 0.00 0.00 100 1014.7
20260903053045 27 360 0.0 0.0 0.00 0.00 0.00 100 1014.6
20260903051542 27 360 0.0 0.0 0.00 0.00 0.00 100 1014.5
20260903050037 27 360 0.0 0.0 0.00 0.00 0.00 100 1014.4
20260903044536 27 360 0.0 0.0 0.00 0.00 0.00 100 1014.4
20260903043039 27 360 0.0 0.0 0.00 0.00 0.00 100 1014.4
20260903041529 27 360 0.0 0.0 0.00 0.00 0.00 100 1014.5
20260903040020 27 360 0.0 0.0 0.00 0.00 0.00 100 1014.5
20260903034517 28 360 0.0 0.0 0.00 0.00 0.00 100 1014.5
20260903033014 28 360 0.0 0.0 0.00 0.00 0.00 100 1014.4
20260903031508 29 360 0.0 4.8 0.00 0.00 0.00 100 1014.3
20260903030005 29 225 0.0 8.0 0.00 0.00 0.00 100 1014.1
20260903024558 30 220 0.0 8.0 0.00 0.00 0.00 100 1014.1
20260903023116 30 230 0.0 6.4 0.00 0.00 0.00 100 1014.1
20260903021549 -17 0.0 0.0 0.00 0.00 0.00 1013.9
20260903020054 -17 0.0 0.0 0.00 0.00 0.00 1013.9
20260903014540 -17 0.0 0.0 0.00 0.00 0.00 1013.7
20260903013037 -17 0.0 0.0 0.00 0.00 0.00 1013.6
20260903011538 -17 0.0 0.0 0.00 0.00 0.00 1013.3
20260903010028 -17 0.0 0.0 0.00 0.00 0.00 1013.1
20260903004526 -17 0.0 0.0 0.00 0.00 0.00 1013.2
20260903003019 -17 0.0 0.0 0.00 0.00 0.00 1013.1
20260903001515 -17 0.0 0.0 0.00 0.00 0.00 1013.2
20260903000010 -17 0.0 0.0 0.00 0.00 0.00 1013.3
20260902234513 -17 0.0 0.0 0.00 0.00 0.00 1013.4
20260902233101 -17 0.0 0.0 0.00 0.00 0.00 1013.4
20260902231601 -17 0.0 0.0 0.00 0.00 0.00 1013.3
20260902230051 -17 0.0 0.0 0.00 0.00 0.00 1013.4
20260902224547 -17 0.0 0.0 0.00 0.00 0.00 1013.5
20260902223043 -17 0.0 0.0 0.00 0.00 0.00 1013.6
20260902221539 -17 0.0 0.0 0.00 0.00 0.00 1013.6